Year,Month,Day,Hour,Minute,Value (Times are PST for temperature in C)
2014,08,14,10,11,16.20
2014,08,14,10,12,16.20
2014,08,14,10,13,16.30
2014,08,14,10,14,16.40
2014,08,14,10,15,16.40
2014,08,14,10,16,16.40
2014,08,14,10,17,16.40
2014,08,14,10,18,16.40
2014,08,14,10,19,16.50
2014,08,14,10,20,16.60
2014,08,14,10,21,16.70
2014,08,14,10,22,16.70
2014,08,14,10,23,16.70
2014,08,14,10,24,16.70
2014,08,14,10,25,16.70
2014,08,14,10,26,16.70
2014,08,14,10,27,16.80
2014,08,14,10,28,16.70
2014,08,14,10,29,16.70
2014,08,14,10,30,16.70
2014,08,14,10,31,16.70
2014,08,14,10,32,16.70
2014,08,14,10,33,16.70
2014,08,14,10,34,16.70
2014,08,14,10,35,16.70
2014,08,14,10,36,16.70
2014,08,14,10,37,16.70
2014,08,14,10,38,16.70
2014,08,14,10,39,16.70
2014,08,14,10,40,16.80
2014,08,14,10,41,16.80
2014,08,14,10,42,16.80
2014,08,14,10,43,16.80
2014,08,14,10,44,16.80
2014,08,14,10,45,16.80
2014,08,14,10,46,16.80
2014,08,14,10,47,16.80
2014,08,14,10,48,16.80
2014,08,14,10,49,16.90
2014,08,14,10,50,16.90
2014,08,14,10,51,16.90
2014,08,14,10,52,17.00
2014,08,14,10,53,16.90
2014,08,14,10,54,16.90
2014,08,14,10,55,17.00
2014,08,14,10,56,17.00
2014,08,14,10,57,17.00
2014,08,14,10,58,17.00
2014,08,14,10,59,17.00
2014,08,14,11,00,17.00
2014,08,14,11,01,17.00
2014,08,14,11,02,17.00
2014,08,14,11,03,17.00
2014,08,14,11,04,17.00
2014,08,14,11,05,17.00
2014,08,14,11,06,17.00
2014,08,14,11,07,17.10
2014,08,14,11,08,17.10
2014,08,14,11,09,17.10
2014,08,14,11,10,17.10
2014,08,14,11,11,17.10
2014,08,14,11,12,17.10
2014,08,14,11,13,17.10
2014,08,14,11,14,17.10
2014,08,14,11,15,17.10
2014,08,14,11,16,17.00
2014,08,14,11,17,17.00
2014,08,14,11,18,17.00
2014,08,14,11,19,17.00
2014,08,14,11,20,16.90
2014,08,14,11,21,16.90
2014,08,14,11,22,16.90
2014,08,14,11,23,16.90
2014,08,14,11,24,16.80
2014,08,14,11,25,16.80
2014,08,14,11,26,16.80
2014,08,14,11,27,16.80
2014,08,14,11,28,16.80
2014,08,14,11,29,16.80
2014,08,14,11,30,16.80
2014,08,14,11,31,16.90
2014,08,14,11,32,16.90
2014,08,14,11,33,16.90
2014,08,14,11,34,16.90
2014,08,14,11,35,17.00
2014,08,14,11,36,17.10
2014,08,14,11,37,17.20
2014,08,14,11,38,17.30
2014,08,14,11,39,17.40
2014,08,14,11,40,17.40
2014,08,14,11,41,17.40
2014,08,14,11,42,17.50
2014,08,14,11,43,17.60
2014,08,14,11,44,17.70
2014,08,14,11,45,17.70
2014,08,14,11,46,17.70
2014,08,14,11,47,17.80
2014,08,14,11,48,17.80
2014,08,14,11,49,17.90
2014,08,14,11,50,17.90
2014,08,14,11,51,17.90
2014,08,14,11,52,18.00
2014,08,14,11,53,18.10
2014,08,14,11,54,18.10
2014,08,14,11,55,18.20
2014,08,14,11,56,18.20
2014,08,14,11,57,18.30
2014,08,14,11,58,18.30
2014,08,14,11,59,18.40
2014,08,14,12,00,18.40
2014,08,14,12,01,18.40
2014,08,14,12,02,18.40
2014,08,14,12,03,18.40
2014,08,14,12,04,18.40
2014,08,14,12,05,18.50
2014,08,14,12,06,18.50
2014,08,14,12,07,18.60
2014,08,14,12,08,18.70
2014,08,14,12,09,18.70
2014,08,14,12,10,18.80
2014,08,14,12,11,18.90
2014,08,14,12,12,18.90
2014,08,14,12,13,19.00
2014,08,14,12,14,19.10
2014,08,14,12,15,19.10
2014,08,14,12,16,19.10
2014,08,14,12,17,19.10
2014,08,14,12,18,19.10
2014,08,14,12,19,19.20
2014,08,14,12,20,19.40
2014,08,14,12,21,19.50
2014,08,14,12,22,19.60
2014,08,14,12,23,19.60
2014,08,14,12,24,19.70
2014,08,14,12,25,19.80
2014,08,14,12,26,19.80
2014,08,14,12,27,19.80
2014,08,14,12,28,19.70
2014,08,14,12,29,19.60
2014,08,14,12,30,19.60
2014,08,14,12,31,19.60
2014,08,14,12,32,19.70
2014,08,14,12,33,19.70
2014,08,14,12,34,19.80
2014,08,14,12,35,19.80
2014,08,14,12,36,19.80
2014,08,14,12,37,19.80
2014,08,14,12,38,19.80
2014,08,14,12,39,19.80
2014,08,14,12,40,19.80
2014,08,14,12,41,19.80
2014,08,14,12,42,19.80
2014,08,14,12,43,19.80
2014,08,14,12,44,19.80
2014,08,14,12,45,19.80
2014,08,14,12,46,19.70
2014,08,14,12,47,19.70
2014,08,14,12,48,19.70
2014,08,14,12,49,19.60
2014,08,14,12,50,19.60
2014,08,14,12,51,19.60
2014,08,14,12,52,19.60
2014,08,14,12,53,19.60
2014,08,14,12,54,19.60
2014,08,14,12,55,19.70
2014,08,14,12,56,19.70
2014,08,14,12,57,19.70
2014,08,14,12,58,19.70
2014,08,14,12,59,19.70
2014,08,14,13,00,19.60
2014,08,14,13,01,19.60
2014,08,14,13,02,19.60
2014,08,14,13,03,19.50
2014,08,14,13,04,19.50
2014,08,14,13,05,19.50
2014,08,14,13,06,19.40
2014,08,14,13,07,19.40
2014,08,14,13,08,19.40
2014,08,14,13,09,19.40
2014,08,14,13,10,19.40
2014,08,14,13,11,19.30
2014,08,14,13,12,19.30
2014,08,14,13,13,19.30
2014,08,14,13,14,19.30
2014,08,14,13,15,19.30
2014,08,14,13,16,19.30
2014,08,14,13,17,19.30
2014,08,14,13,18,19.40
2014,08,14,13,19,19.50
2014,08,14,13,20,19.50
2014,08,14,13,21,19.40
2014,08,14,13,22,19.40
2014,08,14,13,23,19.40
2014,08,14,13,24,19.40
2014,08,14,13,25,19.40
2014,08,14,13,26,19.40
2014,08,14,13,27,19.50
2014,08,14,13,28,19.50
2014,08,14,13,29,19.60
2014,08,14,13,30,19.70
2014,08,14,13,31,19.70
2014,08,14,13,32,19.70
2014,08,14,13,33,19.70
2014,08,14,13,34,19.70
2014,08,14,13,35,19.70
2014,08,14,13,36,19.70
2014,08,14,13,37,19.70
2014,08,14,13,38,19.60
2014,08,14,13,39,19.60
2014,08,14,13,40,19.60
2014,08,14,13,41,19.60
2014,08,14,13,42,19.60
2014,08,14,13,43,19.40
2014,08,14,13,44,19.30
2014,08,14,13,45,19.30
2014,08,14,13,46,19.20
2014,08,14,13,47,19.10
2014,08,14,13,48,19.10
2014,08,14,13,49,19.10
2014,08,14,13,50,19.10
2014,08,14,13,51,19.10
2014,08,14,13,52,19.10
2014,08,14,13,53,19.00
2014,08,14,13,54,18.90
2014,08,14,13,55,18.90
2014,08,14,13,56,18.90
2014,08,14,13,57,18.90
2014,08,14,13,58,18.90
2014,08,14,13,59,18.80
2014,08,14,14,00,18.80
2014,08,14,14,01,18.90
2014,08,14,14,02,18.90
2014,08,14,14,03,19.00
2014,08,14,14,04,19.10
2014,08,14,14,05,19.10
2014,08,14,14,06,19.10
2014,08,14,14,07,19.10
2014,08,14,14,08,19.20
2014,08,14,14,09,19.30
2014,08,14,14,10,19.30
2014,08,14,14,11,19.30
2014,08,14,14,12,19.30
2014,08,14,14,13,19.20
2014,08,14,14,14,19.10
2014,08,14,14,15,19.20
2014,08,14,14,16,19.20
2014,08,14,14,17,19.20
2014,08,14,14,18,19.30
2014,08,14,14,19,19.30
2014,08,14,14,20,19.30
2014,08,14,14,21,19.30
2014,08,14,14,22,19.30
2014,08,14,14,23,19.40
2014,08,14,14,24,19.50
2014,08,14,14,25,19.60
2014,08,14,14,26,19.60
2014,08,14,14,27,19.70
2014,08,14,14,28,19.70
2014,08,14,14,29,19.70
2014,08,14,14,30,19.70
2014,08,14,14,31,19.80
2014,08,14,14,32,19.80
2014,08,14,14,33,19.90
2014,08,14,14,34,19.90
2014,08,14,14,35,20.00
2014,08,14,14,36,20.10
2014,08,14,14,37,20.20
2014,08,14,14,38,20.20
2014,08,14,14,39,20.20
2014,08,14,14,40,20.20
2014,08,14,14,41,20.20
2014,08,14,14,42,20.30
2014,08,14,14,43,20.50
2014,08,14,14,44,20.50
2014,08,14,14,45,20.60
2014,08,14,14,46,20.70
2014,08,14,14,47,20.70
2014,08,14,14,48,20.70
2014,08,14,14,49,20.70
2014,08,14,14,50,20.70
2014,08,14,14,51,20.70
2014,08,14,14,52,20.80
2014,08,14,14,53,20.90
2014,08,14,14,54,20.90
2014,08,14,14,55,21.00
2014,08,14,14,56,21.10
2014,08,14,14,57,21.20
2014,08,14,14,58,21.20
2014,08,14,14,59,21.20
2014,08,14,15,00,21.10
2014,08,14,15,01,21.20
2014,08,14,15,02,21.30
2014,08,14,15,03,21.30
2014,08,14,15,04,21.40
2014,08,14,15,05,21.50
2014,08,14,15,06,21.60
2014,08,14,15,07,21.60
2014,08,14,15,08,21.60
2014,08,14,15,09,21.70
2014,08,14,15,10,21.80
2014,08,14,15,11,21.80
2014,08,14,15,12,21.90
2014,08,14,15,13,21.90
2014,08,14,15,14,21.90
2014,08,14,15,15,21.90
2014,08,14,15,16,21.90
2014,08,14,15,17,21.90
2014,08,14,15,18,22.00
2014,08,14,15,19,22.00
2014,08,14,15,20,22.10
2014,08,14,15,21,22.10
2014,08,14,15,22,22.10
2014,08,14,15,23,22.10
2014,08,14,15,24,22.10
2014,08,14,15,25,22.20
2014,08,14,15,26,22.20
2014,08,14,15,27,22.10
2014,08,14,15,28,22.10
2014,08,14,15,29,22.00
2014,08,14,15,30,21.90
2014,08,14,15,31,21.90
2014,08,14,15,32,21.90
2014,08,14,15,33,21.90
2014,08,14,15,34,21.90
2014,08,14,15,35,21.90
2014,08,14,15,36,22.00
2014,08,14,15,37,22.00
2014,08,14,15,38,22.00
2014,08,14,15,39,22.00
2014,08,14,15,40,22.00
2014,08,14,15,41,22.00
2014,08,14,15,42,21.90
2014,08,14,15,43,21.80
2014,08,14,15,44,21.80
2014,08,14,15,45,21.80
2014,08,14,15,46,21.90
2014,08,14,15,47,21.90
2014,08,14,15,48,21.90
2014,08,14,15,49,21.90
2014,08,14,15,50,22.00
2014,08,14,15,51,22.10
2014,08,14,15,52,22.20
2014,08,14,15,53,22.20
2014,08,14,15,54,22.20
2014,08,14,15,55,22.20
2014,08,14,15,56,22.30
2014,08,14,15,57,22.40
2014,08,14,15,58,22.50
2014,08,14,15,59,22.50
2014,08,14,16,00,22.40
2014,08,14,16,01,22.30
2014,08,14,16,02,22.30
2014,08,14,16,03,22.30
2014,08,14,16,04,22.30
2014,08,14,16,05,22.10
2014,08,14,16,06,21.80
2014,08,14,16,07,21.60
2014,08,14,16,08,21.60
2014,08,14,16,09,21.50
2014,08,14,16,10,21.50
2014,08,14,16,11,21.40
2014,08,14,16,12,21.40
2014,08,14,16,13,21.40
2014,08,14,16,14,21.40
2014,08,14,16,15,21.40
2014,08,14,16,16,21.40
2014,08,14,16,17,21.40
2014,08,14,16,18,21.50
2014,08,14,16,19,21.60
2014,08,14,16,20,21.50
2014,08,14,16,21,21.50
2014,08,14,16,22,21.50
2014,08,14,16,23,21.50
2014,08,14,16,24,21.60
2014,08,14,16,25,21.50
2014,08,14,16,26,21.40
2014,08,14,16,27,21.40
2014,08,14,16,28,21.40
2014,08,14,16,29,21.40
2014,08,14,16,30,21.50
2014,08,14,16,31,21.60
2014,08,14,16,32,21.50
2014,08,14,16,33,21.40
2014,08,14,16,34,21.40
2014,08,14,16,35,21.40
2014,08,14,16,36,21.40
2014,08,14,16,37,21.50
2014,08,14,16,38,21.50
2014,08,14,16,39,21.40
2014,08,14,16,40,21.30
2014,08,14,16,41,21.20
2014,08,14,16,42,21.10
2014,08,14,16,43,21.10
2014,08,14,16,44,21.00
2014,08,14,16,45,20.90
2014,08,14,16,46,20.80
2014,08,14,16,47,20.70
2014,08,14,16,48,20.60
2014,08,14,16,49,20.50
2014,08,14,16,50,20.40
2014,08,14,16,51,20.40
2014,08,14,16,52,20.40
2014,08,14,16,53,20.30
2014,08,14,16,54,20.20
2014,08,14,16,55,20.20
2014,08,14,16,56,20.10
2014,08,14,16,57,20.20
2014,08,14,16,58,20.20
2014,08,14,16,59,20.20
2014,08,14,17,00,20.20
2014,08,14,17,01,20.20
2014,08,14,17,02,20.30
2014,08,14,17,03,20.30
2014,08,14,17,04,20.40
2014,08,14,17,05,20.40
2014,08,14,17,06,20.40
2014,08,14,17,07,20.30
2014,08,14,17,08,20.20
2014,08,14,17,09,20.20
2014,08,14,17,10,20.20
2014,08,14,17,11,20.20
2014,08,14,17,12,20.10
2014,08,14,17,13,19.90
2014,08,14,17,14,19.80
2014,08,14,17,15,19.60
2014,08,14,17,16,19.50
2014,08,14,17,17,19.40
2014,08,14,17,18,19.40
2014,08,14,17,19,19.40
2014,08,14,17,20,19.30
2014,08,14,17,21,19.30
2014,08,14,17,22,19.20
2014,08,14,17,23,19.20
2014,08,14,17,24,19.20
2014,08,14,17,25,19.20
2014,08,14,17,26,19.20
2014,08,14,17,27,19.30
2014,08,14,17,28,19.20
2014,08,14,17,29,19.20
2014,08,14,17,30,19.20
2014,08,14,17,31,19.30
2014,08,14,17,32,19.30
2014,08,14,17,33,19.30
2014,08,14,17,34,19.30
2014,08,14,17,35,19.40
2014,08,14,17,36,19.40
2014,08,14,17,37,19.40
2014,08,14,17,38,19.40
2014,08,14,17,39,19.40
2014,08,14,17,40,19.40
2014,08,14,17,41,19.40
2014,08,14,17,42,19.50
2014,08,14,17,43,19.50
2014,08,14,17,44,19.60
2014,08,14,17,45,19.60
2014,08,14,17,46,19.60
2014,08,14,17,47,19.50
2014,08,14,17,48,19.50
2014,08,14,17,49,19.50
2014,08,14,17,50,19.40
2014,08,14,17,51,19.40
2014,08,14,17,52,19.50
2014,08,14,17,53,19.50
2014,08,14,17,54,19.50
2014,08,14,17,55,19.50
2014,08,14,17,56,19.60
2014,08,14,17,57,19.60
2014,08,14,17,58,19.70
2014,08,14,17,59,19.70
2014,08,14,18,00,19.70
2014,08,14,18,01,19.80
2014,08,14,18,02,19.80
2014,08,14,18,03,19.80
2014,08,14,18,04,19.70
2014,08,14,18,05,19.70
2014,08,14,18,06,19.60
2014,08,14,18,07,19.60
2014,08,14,18,08,19.50
2014,08,14,18,09,19.50
2014,08,14,18,10,19.50
2014,08,14,18,11,19.50
2014,08,14,18,12,19.50
2014,08,14,18,13,19.50
2014,08,14,18,14,19.50
2014,08,14,18,15,19.50
2014,08,14,18,16,19.50
2014,08,14,18,17,19.50
2014,08,14,18,18,19.50
2014,08,14,18,19,19.40
2014,08,14,18,20,19.40
2014,08,14,18,21,19.40
2014,08,14,18,22,19.30
2014,08,14,18,23,19.30
2014,08,14,18,24,19.40
2014,08,14,18,25,19.40
2014,08,14,18,26,19.40
2014,08,14,18,27,19.40
2014,08,14,18,28,19.40
2014,08,14,18,29,19.40
2014,08,14,18,30,19.40
2014,08,14,18,31,19.40
2014,08,14,18,32,19.40
2014,08,14,18,33,19.40
2014,08,14,18,34,19.40
2014,08,14,18,35,19.40
2014,08,14,18,36,19.40
2014,08,14,18,37,19.40
